Location: Civry
(47.2902°N, 4.6156°E)
Time: 23:21:56
(UTC+00:00)

BREEZE M DEB (TANK) - Pass Details

Date: 09 April 2020
Orbit: 313 x 13666 km, 49.6° (Epoch: 27 May)

Event Time Altitude Azimuth Distance (km) Brightness Sun altitude
Rises 20:39:06 0° 254° (WSW) 5,895 8.5 -21.4°
Reaches altitude 10° 20:44:33 10° 256° (WSW) 3,463 7.3 -22.1°
Maximum altitude 20:51:12 79° 344° (NNW) 583 2.9 -22.9°
Enters shadow 20:51:26 74° 33° (NNE) 575 2.8 -23.0°
